Orbital Elements at Epoch 2459200.5 (2020-Dec-17.0) TDB
Reference: JPL 102 (heliocentric ecliptic J2000)
Element | Value | Uncertainty (1-sigma) | Units |
e | .08299665626553333 | 3.0439e-08 | |
a | 2.249528470030203 | 5.7114e-09 | au |
q | 2.062825128843575 | 6.7586e-08 | au |
i | 3.916885956738294 | 3.1473e-06 | deg |
node | 42.24229814198276 | 4.5477e-05 | deg |
peri | 168.0033448323244 | 4.8958e-05 | deg |
M | 126.6236614095649 | 1.8438e-05 | deg |
tp | 2458767.040990405590 (2019-Oct-10.54099041) | 6.2902e-05 | TDB |
period | 1232.354535612887 3.37 | 4.6933e-06 1.285e-08 | d yr |
n | .2921237270579454 | 1.1125e-09 | deg/d |
Q | 2.43623181121683 | 6.1854e-09 | au |
|
| | Orbit Determination Parameters
Additional Information
|